Year,Month,Day,Hour,Minute,Value (Times are PST for temperature in C)
2017,04,21,00,00,8.20
2017,04,21,00,01,8.20
2017,04,21,00,02,8.20
2017,04,21,00,03,8.20
2017,04,21,00,04,8.20
2017,04,21,00,05,8.20
2017,04,21,00,06,8.20
2017,04,21,00,07,8.20
2017,04,21,00,08,8.20
2017,04,21,00,09,8.20
2017,04,21,00,10,8.20
2017,04,21,00,11,8.20
2017,04,21,00,12,8.20
2017,04,21,00,13,8.20
2017,04,21,00,14,8.20
2017,04,21,00,15,8.20
2017,04,21,00,16,8.20
2017,04,21,00,17,8.20
2017,04,21,00,18,8.20
2017,04,21,00,19,8.20
2017,04,21,00,20,8.20
2017,04,21,00,21,8.30
2017,04,21,00,22,8.30
2017,04,21,00,23,8.30
2017,04,21,00,24,8.30
2017,04,21,00,25,8.30
2017,04,21,00,26,8.30
2017,04,21,00,27,8.30
2017,04,21,00,28,8.40
2017,04,21,00,29,8.40
2017,04,21,00,30,8.40
2017,04,21,00,31,8.40
2017,04,21,00,32,8.40
2017,04,21,00,33,8.40
2017,04,21,00,34,8.40
2017,04,21,00,35,8.40
2017,04,21,00,36,8.40
2017,04,21,00,37,8.40
2017,04,21,00,38,8.40
2017,04,21,00,39,8.40
2017,04,21,00,40,8.40
2017,04,21,00,41,8.40
2017,04,21,00,42,8.40
2017,04,21,00,43,8.40
2017,04,21,00,44,8.40
2017,04,21,00,45,8.40
2017,04,21,00,46,8.40
2017,04,21,00,47,8.40
2017,04,21,00,48,8.40
2017,04,21,00,49,8.40
2017,04,21,00,50,8.40
2017,04,21,00,51,8.40
2017,04,21,00,52,8.40
2017,04,21,00,53,8.40
2017,04,21,00,54,8.30
2017,04,21,00,55,8.30
2017,04,21,00,56,8.30
2017,04,21,00,57,8.30
2017,04,21,00,58,8.30
2017,04,21,00,59,8.30
2017,04,21,01,00,8.30
2017,04,21,01,01,8.30
2017,04,21,01,02,8.20
2017,04,21,01,03,8.20
2017,04,21,01,04,8.20
2017,04,21,01,05,8.20
2017,04,21,01,06,8.20
2017,04,21,01,07,8.20
2017,04,21,01,08,8.10
2017,04,21,01,09,8.10
2017,04,21,01,10,8.10
2017,04,21,01,11,8.10
2017,04,21,01,12,8.10
2017,04,21,01,13,8.10
2017,04,21,01,14,8.10
2017,04,21,01,15,8.10
2017,04,21,01,16,8.10
2017,04,21,01,17,8.20
2017,04,21,01,18,8.20
2017,04,21,01,19,8.20
2017,04,21,01,20,8.20
2017,04,21,01,21,8.30
2017,04,21,01,22,8.30
2017,04,21,01,23,8.30
2017,04,21,01,24,8.30
2017,04,21,01,25,8.30
2017,04,21,01,26,8.30
2017,04,21,01,27,8.30
2017,04,21,01,28,8.30
2017,04,21,01,29,8.30
2017,04,21,01,30,8.30
2017,04,21,01,31,8.30
2017,04,21,01,32,8.20
2017,04,21,01,33,8.20
2017,04,21,01,34,8.20
2017,04,21,01,35,8.10
2017,04,21,01,36,8.10
2017,04,21,01,37,8.10
2017,04,21,01,38,8.10
2017,04,21,01,39,8.10
2017,04,21,01,40,8.10
2017,04,21,01,41,8.10
2017,04,21,01,42,8.10
2017,04,21,01,43,8.10
2017,04,21,01,44,8.10
2017,04,21,01,45,8.10
2017,04,21,01,46,8.10
2017,04,21,01,47,8.10
2017,04,21,01,48,8.10
2017,04,21,01,49,8.10
2017,04,21,01,50,8.10
2017,04,21,01,51,8.10
2017,04,21,01,52,8.10
2017,04,21,01,53,8.10
2017,04,21,01,54,8.10
2017,04,21,01,55,8.10
2017,04,21,01,56,8.10
2017,04,21,01,57,8.10
2017,04,21,01,58,8.10
2017,04,21,01,59,8.10
2017,04,21,02,00,8.10
2017,04,21,02,01,8.10
2017,04,21,02,02,8.10
2017,04,21,02,03,8.10
2017,04,21,02,04,8.10
2017,04,21,02,05,8.10
2017,04,21,02,06,8.10
2017,04,21,02,07,8.10
2017,04,21,02,08,8.10
2017,04,21,02,09,8.10
2017,04,21,02,10,8.10
2017,04,21,02,11,8.10
2017,04,21,02,12,8.10
2017,04,21,02,13,8.10
2017,04,21,02,14,8.10
2017,04,21,02,15,8.10
2017,04,21,02,16,8.10
2017,04,21,02,17,8.10
2017,04,21,02,18,8.20
2017,04,21,02,19,8.20
2017,04,21,02,20,8.20
2017,04,21,02,21,8.20
2017,04,21,02,22,8.20
2017,04,21,02,23,8.20
2017,04,21,02,24,8.20
2017,04,21,02,25,8.20
2017,04,21,02,26,8.20
2017,04,21,02,27,8.20
2017,04,21,02,28,8.20
2017,04,21,02,29,8.20
2017,04,21,02,30,8.20
2017,04,21,02,31,8.20
2017,04,21,02,32,8.20
2017,04,21,02,33,8.30
2017,04,21,02,34,8.30
2017,04,21,02,35,8.30
2017,04,21,02,36,8.30
2017,04,21,02,37,8.30
2017,04,21,02,38,8.30
2017,04,21,02,39,8.30
2017,04,21,02,40,8.30
2017,04,21,02,41,8.30
2017,04,21,02,42,8.30
2017,04,21,02,43,8.30
2017,04,21,02,44,8.30
2017,04,21,02,45,8.30
2017,04,21,02,46,8.30
2017,04,21,02,47,8.30
2017,04,21,02,48,8.20
2017,04,21,02,49,8.30
2017,04,21,02,50,8.30
2017,04,21,02,51,8.30
2017,04,21,02,52,8.30
2017,04,21,02,53,8.30
2017,04,21,02,54,8.30
2017,04,21,02,55,8.30
2017,04,21,02,56,8.30
2017,04,21,02,57,8.30
2017,04,21,02,58,8.30
2017,04,21,02,59,8.30
2017,04,21,03,00,8.30
2017,04,21,03,01,8.30
2017,04,21,03,02,8.30
2017,04,21,03,03,8.30
2017,04,21,03,04,8.30
2017,04,21,03,05,8.30
2017,04,21,03,06,8.30
2017,04,21,03,07,8.30
2017,04,21,03,08,8.30
2017,04,21,03,09,8.30
2017,04,21,03,10,8.30
2017,04,21,03,11,8.20
2017,04,21,03,12,8.20
2017,04,21,03,13,8.20
2017,04,21,03,14,8.20
2017,04,21,03,15,8.20
2017,04,21,03,16,8.10
2017,04,21,03,17,8.10
2017,04,21,03,18,8.10
2017,04,21,03,19,8.10
2017,04,21,03,20,8.00
2017,04,21,03,21,8.00
2017,04,21,03,22,8.00
2017,04,21,03,23,8.00
2017,04,21,03,24,7.90
2017,04,21,03,25,7.90
2017,04,21,03,26,7.90
2017,04,21,03,27,7.90
2017,04,21,03,28,7.90
2017,04,21,03,29,7.90
2017,04,21,03,30,7.90
2017,04,21,03,31,7.80
2017,04,21,03,32,7.80
2017,04,21,03,33,7.80
2017,04,21,03,34,7.80
2017,04,21,03,35,7.80
2017,04,21,03,36,7.80
2017,04,21,03,37,7.80
2017,04,21,03,38,7.80
2017,04,21,03,39,7.70
2017,04,21,03,40,7.70
2017,04,21,03,41,7.70
2017,04,21,03,42,7.70
2017,04,21,03,43,7.70
2017,04,21,03,44,7.70
2017,04,21,03,45,7.70
2017,04,21,03,46,7.70
2017,04,21,03,47,7.70
2017,04,21,03,48,7.70
2017,04,21,03,49,7.70
2017,04,21,03,50,7.70
2017,04,21,03,51,7.70
2017,04,21,03,52,7.70
2017,04,21,03,53,7.70
2017,04,21,03,54,7.70
2017,04,21,03,55,7.70
2017,04,21,03,56,7.70
2017,04,21,03,57,7.60
2017,04,21,03,58,7.60
2017,04,21,03,59,7.60
2017,04,21,04,00,7.60
2017,04,21,04,01,7.60
2017,04,21,04,02,7.60
2017,04,21,04,03,7.60
2017,04,21,04,04,7.60
2017,04,21,04,05,7.60
2017,04,21,04,06,7.60
2017,04,21,04,07,7.50
2017,04,21,04,08,7.50
2017,04,21,04,09,7.50
2017,04,21,04,10,7.50
2017,04,21,04,11,7.50
2017,04,21,04,12,7.50
2017,04,21,04,13,7.50
2017,04,21,04,14,7.40
2017,04,21,04,15,7.40
2017,04,21,04,16,7.40
2017,04,21,04,17,7.40
2017,04,21,04,18,7.40
2017,04,21,04,19,7.40
2017,04,21,04,20,7.30
2017,04,21,04,21,7.30
2017,04,21,04,22,7.30
2017,04,21,04,23,7.30
2017,04,21,04,24,7.20
2017,04,21,04,25,7.20
2017,04,21,04,26,7.20
2017,04,21,04,27,7.20
2017,04,21,04,28,7.10
2017,04,21,04,29,7.10
2017,04,21,04,30,7.10
2017,04,21,04,31,7.10
2017,04,21,04,32,7.10
2017,04,21,04,33,7.10
2017,04,21,04,34,7.10
2017,04,21,04,35,7.10
2017,04,21,04,36,7.10
2017,04,21,04,37,7.10
2017,04,21,04,38,7.10
2017,04,21,04,39,7.10
2017,04,21,04,40,7.10
2017,04,21,04,41,7.10
2017,04,21,04,42,7.10
2017,04,21,04,43,7.00
2017,04,21,04,44,7.00
2017,04,21,04,45,6.90
2017,04,21,04,46,6.90
2017,04,21,04,47,6.90
2017,04,21,04,48,6.80
2017,04,21,04,49,6.80
2017,04,21,04,50,6.80
2017,04,21,04,51,6.70
2017,04,21,04,52,6.70
2017,04,21,04,53,6.70
2017,04,21,04,54,6.70
2017,04,21,04,55,6.70
2017,04,21,04,56,6.70
2017,04,21,04,57,6.70
2017,04,21,04,58,6.70
2017,04,21,04,59,6.70
2017,04,21,05,00,6.70
2017,04,21,05,01,6.70
2017,04,21,05,02,6.70
2017,04,21,05,03,6.70
2017,04,21,05,04,6.70
2017,04,21,05,05,6.70
2017,04,21,05,06,6.70
2017,04,21,05,07,6.70
2017,04,21,05,08,6.70
2017,04,21,05,09,6.80
2017,04,21,05,10,6.80
2017,04,21,05,11,6.80
2017,04,21,05,12,6.80
2017,04,21,05,13,6.80
2017,04,21,05,14,6.80
2017,04,21,05,15,6.80
2017,04,21,05,16,6.70
2017,04,21,05,17,6.70
2017,04,21,05,18,6.70
2017,04,21,05,19,6.70
2017,04,21,05,20,6.70
2017,04,21,05,21,6.70
2017,04,21,05,22,6.70
2017,04,21,05,23,6.70
2017,04,21,05,24,6.60
2017,04,21,05,25,6.60
2017,04,21,05,26,6.60
2017,04,21,05,27,6.50
2017,04,21,05,28,6.50
2017,04,21,05,29,6.40
2017,04,21,05,30,6.40
2017,04,21,05,31,6.40
2017,04,21,05,32,6.40
2017,04,21,05,33,6.30
2017,04,21,05,34,6.30
2017,04,21,05,35,6.30
2017,04,21,05,36,6.30
2017,04,21,05,37,6.30
2017,04,21,05,38,6.30
2017,04,21,05,39,6.30
2017,04,21,05,40,6.40
2017,04,21,05,41,6.40
2017,04,21,05,42,6.40
2017,04,21,05,43,6.40
2017,04,21,05,44,6.40
2017,04,21,05,45,6.40
2017,04,21,05,46,6.40
2017,04,21,05,47,6.40
2017,04,21,05,48,6.40
2017,04,21,05,49,6.30
2017,04,21,05,50,6.40
2017,04,21,05,51,6.40
2017,04,21,05,52,6.30
2017,04,21,05,53,6.30
2017,04,21,05,54,6.40
2017,04,21,05,55,6.40
2017,04,21,05,56,6.40
2017,04,21,05,57,6.40
2017,04,21,05,58,6.40
2017,04,21,05,59,6.40
2017,04,21,06,00,6.40
2017,04,21,06,01,6.40
2017,04,21,06,02,6.40
2017,04,21,06,03,6.40
2017,04,21,06,04,6.40
2017,04,21,06,05,6.40
2017,04,21,06,06,6.30
2017,04,21,06,07,6.30
2017,04,21,06,08,6.30
2017,04,21,06,09,6.30
2017,04,21,06,10,6.30
2017,04,21,06,11,6.30
2017,04,21,06,12,6.30
2017,04,21,06,13,6.30
2017,04,21,06,14,6.30
2017,04,21,06,15,6.30
2017,04,21,06,16,6.20
2017,04,21,06,17,6.20
2017,04,21,06,18,6.20
2017,04,21,06,19,6.20
2017,04,21,06,20,6.20
2017,04,21,06,21,6.20
2017,04,21,06,22,6.20
2017,04,21,06,23,6.20
2017,04,21,06,24,6.20
2017,04,21,06,25,6.20
2017,04,21,06,26,6.20
2017,04,21,06,27,6.20
2017,04,21,06,28,6.20
2017,04,21,06,29,6.20
2017,04,21,06,30,6.20
2017,04,21,06,31,6.20
2017,04,21,06,32,6.20
2017,04,21,06,33,6.20
2017,04,21,06,34,6.20
2017,04,21,06,35,6.20
2017,04,21,06,36,6.20
2017,04,21,06,37,6.20
2017,04,21,06,38,6.20
2017,04,21,06,39,6.20
2017,04,21,06,40,6.20
2017,04,21,06,41,6.20
2017,04,21,06,42,6.20
2017,04,21,06,43,6.20
2017,04,21,06,44,6.30
2017,04,21,06,45,6.30
2017,04,21,06,46,6.30
2017,04,21,06,47,6.30
2017,04,21,06,48,6.30
2017,04,21,06,49,6.30
2017,04,21,06,50,6.40
2017,04,21,06,51,6.40
2017,04,21,06,52,6.40
2017,04,21,06,53,6.50
2017,04,21,06,54,6.50
2017,04,21,06,55,6.60
2017,04,21,06,56,6.60
2017,04,21,06,57,6.60
2017,04,21,06,58,6.60
2017,04,21,06,59,6.70
2017,04,21,07,00,6.70
2017,04,21,07,01,6.70
2017,04,21,07,02,6.70
2017,04,21,07,03,6.70
2017,04,21,07,04,6.70
2017,04,21,07,05,6.80
2017,04,21,07,06,6.80
2017,04,21,07,07,6.80
2017,04,21,07,08,6.80
2017,04,21,07,09,6.90
2017,04,21,07,10,6.90
2017,04,21,07,11,6.90
2017,04,21,07,12,7.00
2017,04,21,07,13,7.00
2017,04,21,07,14,7.00
2017,04,21,07,15,7.10
2017,04,21,07,16,7.10
2017,04,21,07,17,7.10
2017,04,21,07,18,7.20
2017,04,21,07,19,7.30
2017,04,21,07,20,7.30
2017,04,21,07,21,7.40
2017,04,21,07,22,7.40
2017,04,21,07,23,7.50
2017,04,21,07,24,7.50
2017,04,21,07,25,7.60
2017,04,21,07,26,7.70
2017,04,21,07,27,7.80
2017,04,21,07,28,7.90
2017,04,21,07,29,7.90
2017,04,21,07,30,8.00
2017,04,21,07,31,8.00
2017,04,21,07,32,8.00
2017,04,21,07,33,8.00
2017,04,21,07,34,8.00
2017,04,21,07,35,7.90
2017,04,21,07,36,7.90
2017,04,21,07,37,7.90
2017,04,21,07,38,7.90
2017,04,21,07,39,7.90
2017,04,21,07,40,7.90
2017,04,21,07,41,7.90
2017,04,21,07,42,7.90
2017,04,21,07,43,7.90
2017,04,21,07,44,8.00
2017,04,21,07,45,8.00
2017,04,21,07,46,8.00
2017,04,21,07,47,8.10
2017,04,21,07,48,8.10
2017,04,21,07,49,8.10
2017,04,21,07,50,8.10
2017,04,21,07,51,8.10
2017,04,21,07,52,8.10
2017,04,21,07,53,8.10
2017,04,21,07,54,8.10
2017,04,21,07,55,8.10
2017,04,21,07,56,8.10
2017,04,21,07,57,8.10
2017,04,21,07,58,8.10
2017,04,21,07,59,8.10
2017,04,21,08,00,8.20
2017,04,21,08,01,8.20
2017,04,21,08,02,8.20
2017,04,21,08,03,8.20
2017,04,21,08,04,8.20
2017,04,21,08,05,8.20
2017,04,21,08,06,8.30
2017,04,21,08,07,8.30
2017,04,21,08,08,8.30
2017,04,21,08,09,8.30
2017,04,21,08,10,8.40
2017,04,21,08,11,8.40
2017,04,21,08,12,8.40
2017,04,21,08,13,8.40
2017,04,21,08,14,8.50
2017,04,21,08,15,8.50
2017,04,21,08,16,8.50
2017,04,21,08,17,8.60
2017,04,21,08,18,8.60
2017,04,21,08,19,8.60
2017,04,21,08,20,8.60
2017,04,21,08,21,8.60
2017,04,21,08,22,8.70
2017,04,21,08,23,8.70
2017,04,21,08,24,8.70
2017,04,21,08,25,8.80
2017,04,21,08,26,8.70
2017,04,21,08,27,8.80
2017,04,21,08,28,8.80
2017,04,21,08,29,8.80
2017,04,21,08,30,8.80
2017,04,21,08,31,8.80
2017,04,21,08,32,8.80
2017,04,21,08,33,8.80
2017,04,21,08,34,8.80
2017,04,21,08,35,8.80
2017,04,21,08,36,8.80
2017,04,21,08,37,8.80
2017,04,21,08,38,8.80
2017,04,21,08,39,8.90
2017,04,21,08,40,8.90
2017,04,21,08,41,8.90
2017,04,21,08,42,8.90
2017,04,21,08,43,8.90
2017,04,21,08,44,8.90
2017,04,21,08,45,9.00
2017,04,21,08,46,9.00
2017,04,21,08,47,9.00
2017,04,21,08,48,9.10
2017,04,21,08,49,9.10
2017,04,21,08,50,9.10
2017,04,21,08,51,9.10
2017,04,21,08,52,9.10
2017,04,21,08,53,9.10
2017,04,21,08,54,9.20
2017,04,21,08,55,9.40
2017,04,21,08,56,9.60
2017,04,21,08,57,9.70
2017,04,21,08,58,9.80
2017,04,21,08,59,9.90
2017,04,21,09,00,10.00
2017,04,21,09,01,10.10
2017,04,21,09,02,10.10
2017,04,21,09,03,10.20
2017,04,21,09,04,10.10
2017,04,21,09,05,10.10
2017,04,21,09,06,10.20
2017,04,21,09,07,10.20
2017,04,21,09,08,10.10
2017,04,21,09,09,10.00
2017,04,21,09,10,10.00
2017,04,21,09,11,10.00
2017,04,21,09,12,10.00
2017,04,21,09,13,10.00
2017,04,21,09,14,10.00
2017,04,21,09,15,10.00
2017,04,21,09,16,10.00
2017,04,21,09,17,10.00
2017,04,21,09,18,10.00
2017,04,21,09,19,10.10
2017,04,21,09,20,10.10
2017,04,21,09,21,10.10
2017,04,21,09,22,10.00
2017,04,21,09,23,10.00
2017,04,21,09,24,10.00
2017,04,21,09,25,10.00
2017,04,21,09,26,10.10
2017,04,21,09,27,10.10
2017,04,21,09,28,10.10
2017,04,21,09,29,10.10
2017,04,21,09,30,10.10
2017,04,21,09,31,10.20
2017,04,21,09,32,10.20
2017,04,21,09,33,10.30
2017,04,21,09,34,10.40
2017,04,21,09,35,10.40
2017,04,21,09,36,10.50
2017,04,21,09,37,10.60
2017,04,21,09,38,10.60
2017,04,21,09,39,10.60
2017,04,21,09,40,10.60
2017,04,21,09,41,10.70
2017,04,21,09,42,10.60
2017,04,21,09,43,10.60
2017,04,21,09,44,10.60
2017,04,21,09,45,10.60
2017,04,21,09,46,10.60
2017,04,21,09,47,10.60
2017,04,21,09,48,10.70
2017,04,21,09,49,10.70
2017,04,21,09,50,10.70
2017,04,21,09,51,10.60
2017,04,21,09,52,10.60
2017,04,21,09,53,10.50
2017,04,21,09,54,10.50
2017,04,21,09,55,10.40
2017,04,21,09,56,10.50
2017,04,21,09,57,10.50
2017,04,21,09,58,10.50
2017,04,21,09,59,10.50
2017,04,21,10,00,10.60
2017,04,21,10,01,10.60
2017,04,21,10,02,10.70
2017,04,21,10,03,10.80
2017,04,21,10,04,10.80
2017,04,21,10,05,10.90
2017,04,21,10,06,10.90
2017,04,21,10,07,10.90
2017,04,21,10,08,10.90
2017,04,21,10,09,10.90
2017,04,21,10,10,10.90
2017,04,21,10,11,10.90
2017,04,21,10,12,11.00
2017,04,21,10,13,11.10
2017,04,21,10,14,11.10
2017,04,21,10,15,11.10
2017,04,21,10,16,11.00
2017,04,21,10,17,10.90
2017,04,21,10,18,10.80
2017,04,21,10,19,10.70
2017,04,21,10,20,10.60
2017,04,21,10,21,10.50
2017,04,21,10,22,10.50
2017,04,21,10,23,10.50
2017,04,21,10,24,10.60
2017,04,21,10,25,10.60
2017,04,21,10,26,10.60
2017,04,21,10,27,10.70
2017,04,21,10,28,10.70
2017,04,21,10,29,10.70
2017,04,21,10,30,10.80
2017,04,21,10,31,10.80
2017,04,21,10,32,10.80
2017,04,21,10,33,10.80
2017,04,21,10,34,10.80
2017,04,21,10,35,10.90
2017,04,21,10,36,10.90
2017,04,21,10,37,10.90
2017,04,21,10,38,10.90
2017,04,21,10,39,10.90
2017,04,21,10,40,10.90
2017,04,21,10,41,10.80
2017,04,21,10,42,10.80
2017,04,21,10,43,10.90
2017,04,21,10,44,11.00
2017,04,21,10,45,11.20
2017,04,21,10,46,11.20
2017,04,21,10,47,11.30
2017,04,21,10,48,11.30
2017,04,21,10,49,11.30
2017,04,21,10,50,11.40
2017,04,21,10,51,11.50
2017,04,21,10,52,11.60
2017,04,21,10,53,11.60
2017,04,21,10,54,11.60
2017,04,21,10,55,11.60
2017,04,21,10,56,11.50
2017,04,21,10,57,11.50
2017,04,21,10,58,11.50
2017,04,21,10,59,11.50
2017,04,21,11,00,11.50
2017,04,21,11,01,11.60
2017,04,21,11,02,11.80
2017,04,21,11,03,11.80
2017,04,21,11,04,11.90
2017,04,21,11,05,11.80
2017,04,21,11,06,11.80
2017,04,21,11,07,11.80
2017,04,21,11,08,11.80
2017,04,21,11,09,11.80
2017,04,21,11,10,11.80
2017,04,21,11,11,11.90
2017,04,21,11,12,11.90
2017,04,21,11,13,11.90
2017,04,21,11,14,12.00
2017,04,21,11,15,11.90
2017,04,21,11,16,11.90
2017,04,21,11,17,11.80
2017,04,21,11,18,11.90
2017,04,21,11,19,12.00
2017,04,21,11,20,12.10
2017,04,21,11,21,12.20
2017,04,21,11,22,12.20
2017,04,21,11,23,12.30
2017,04,21,11,24,12.40
2017,04,21,11,25,12.40
2017,04,21,11,26,12.40
2017,04,21,11,27,12.40
2017,04,21,11,28,12.30
2017,04,21,11,29,12.20
2017,04,21,11,30,12.00
2017,04,21,11,31,11.90
2017,04,21,11,32,11.80
2017,04,21,11,33,11.70
2017,04,21,11,34,11.60
2017,04,21,11,35,11.60
2017,04,21,11,36,11.50
2017,04,21,11,37,11.50
2017,04,21,11,38,11.40
2017,04,21,11,39,11.50
2017,04,21,11,40,11.50
2017,04,21,11,41,11.50
2017,04,21,11,42,11.50
2017,04,21,11,43,11.60
2017,04,21,11,44,11.60
2017,04,21,11,45,11.60
2017,04,21,11,46,11.70
2017,04,21,11,47,11.70
2017,04,21,11,48,11.80
2017,04,21,11,49,11.80
2017,04,21,11,50,11.80
2017,04,21,11,51,11.90
2017,04,21,11,52,11.90
2017,04,21,11,53,11.90
2017,04,21,11,54,12.00
2017,04,21,11,55,12.00
2017,04,21,11,56,12.10
2017,04,21,11,57,12.10
2017,04,21,11,58,12.20
2017,04,21,11,59,12.20
2017,04,21,12,00,12.20
2017,04,21,12,01,12.20
2017,04,21,12,02,12.30
2017,04,21,12,03,12.50
2017,04,21,12,04,12.50
2017,04,21,12,05,12.70
2017,04,21,12,06,12.80
2017,04,21,12,07,12.90
2017,04,21,12,08,12.90
2017,04,21,12,09,12.90
2017,04,21,12,10,12.90
2017,04,21,12,11,12.80
2017,04,21,12,12,12.90
2017,04,21,12,13,12.90
2017,04,21,12,14,12.90
2017,04,21,12,15,13.00
2017,04,21,12,16,13.00
2017,04,21,12,17,13.00
2017,04,21,12,18,13.10
2017,04,21,12,19,13.10
2017,04,21,12,20,13.20
2017,04,21,12,21,13.30
2017,04,21,12,22,13.20
2017,04,21,12,23,13.10
2017,04,21,12,24,13.00
2017,04,21,12,25,12.90
2017,04,21,12,26,12.90
2017,04,21,12,27,13.00
2017,04,21,12,28,13.10
2017,04,21,12,29,13.20
2017,04,21,12,30,13.20
2017,04,21,12,31,13.20
2017,04,21,12,32,13.10
2017,04,21,12,33,13.00
2017,04,21,12,34,12.90
2017,04,21,12,35,12.90
2017,04,21,12,36,13.00
2017,04,21,12,37,13.10
2017,04,21,12,38,13.20
2017,04,21,12,39,13.30
2017,04,21,12,40,13.40
2017,04,21,12,41,13.40
2017,04,21,12,42,13.30
2017,04,21,12,43,13.30
2017,04,21,12,44,13.40
2017,04,21,12,45,13.30
2017,04,21,12,46,13.30
2017,04,21,12,47,13.30
2017,04,21,12,48,13.20
2017,04,21,12,49,13.20
2017,04,21,12,50,13.10
2017,04,21,12,51,13.10
2017,04,21,12,52,13.00
2017,04,21,12,53,12.90
2017,04,21,12,54,12.90
2017,04,21,12,55,12.90
2017,04,21,12,56,12.90
2017,04,21,12,57,12.90
2017,04,21,12,58,13.00
2017,04,21,12,59,13.10
2017,04,21,13,00,13.10
2017,04,21,13,01,13.10
2017,04,21,13,02,13.10
2017,04,21,13,03,13.20
2017,04,21,13,04,13.20
2017,04,21,13,05,13.30
2017,04,21,13,06,13.40
2017,04,21,13,07,13.50
2017,04,21,13,08,13.50
2017,04,21,13,09,13.50
2017,04,21,13,10,13.50
2017,04,21,13,11,13.60
2017,04,21,13,12,13.60
2017,04,21,13,13,13.70
2017,04,21,13,14,13.80
2017,04,21,13,15,13.90
2017,04,21,13,16,13.90
2017,04,21,13,17,14.00
2017,04,21,13,18,14.20
2017,04,21,13,19,14.20
2017,04,21,13,20,14.20
2017,04,21,13,21,14.20
2017,04,21,13,22,14.20
2017,04,21,13,23,14.10
2017,04,21,13,24,14.10
2017,04,21,13,25,13.90
2017,04,21,13,26,13.80
2017,04,21,13,27,13.80
2017,04,21,13,28,13.80
2017,04,21,13,29,13.80
2017,04,21,13,30,13.80
2017,04,21,13,31,13.90
2017,04,21,13,32,14.00
2017,04,21,13,33,14.00
2017,04,21,13,34,14.10
2017,04,21,13,35,14.00
2017,04,21,13,36,14.00
2017,04,21,13,37,14.00
2017,04,21,13,38,14.00
2017,04,21,13,39,14.00
2017,04,21,13,40,14.00
2017,04,21,13,41,13.90
2017,04,21,13,42,13.90
2017,04,21,13,43,13.90
2017,04,21,13,44,14.00
2017,04,21,13,45,14.00
2017,04,21,13,46,14.00
2017,04,21,13,47,14.00
2017,04,21,13,48,14.00
2017,04,21,13,49,14.10
2017,04,21,13,50,14.10
2017,04,21,13,51,14.20
2017,04,21,13,52,14.20
2017,04,21,13,53,14.20
2017,04,21,13,54,14.20
2017,04,21,13,55,14.20
2017,04,21,13,56,14.20
2017,04,21,13,57,14.20
2017,04,21,13,58,14.20
2017,04,21,13,59,14.30
2017,04,21,14,00,14.40
2017,04,21,14,01,14.40
2017,04,21,14,02,14.50
2017,04,21,14,03,14.50
2017,04,21,14,04,14.40
2017,04,21,14,05,14.40
2017,04,21,14,06,14.50
2017,04,21,14,07,14.40
2017,04,21,14,08,14.40
2017,04,21,14,09,14.40
2017,04,21,14,10,14.40
2017,04,21,14,11,14.50
2017,04,21,14,12,14.60
2017,04,21,14,13,14.70
2017,04,21,14,14,14.80
2017,04,21,14,15,14.80
2017,04,21,14,16,14.80
2017,04,21,14,17,14.70
2017,04,21,14,18,14.70
2017,04,21,14,19,14.60
2017,04,21,14,20,14.50
2017,04,21,14,21,14.50
2017,04,21,14,22,14.50
2017,04,21,14,23,14.60
2017,04,21,14,24,14.70
2017,04,21,14,25,14.80
2017,04,21,14,26,14.90
2017,04,21,14,27,15.00
2017,04,21,14,28,15.10
2017,04,21,14,29,15.10
2017,04,21,14,30,15.10
2017,04,21,14,31,15.00
2017,04,21,14,32,15.00
2017,04,21,14,33,14.90
2017,04,21,14,34,14.80
2017,04,21,14,35,14.70
2017,04,21,14,36,14.70
2017,04,21,14,37,14.70
2017,04,21,14,38,14.70
2017,04,21,14,39,14.70
2017,04,21,14,40,14.80
2017,04,21,14,41,14.90
2017,04,21,14,42,14.90
2017,04,21,14,43,14.90
2017,04,21,14,44,14.80
2017,04,21,14,45,14.70
2017,04,21,14,46,14.60
2017,04,21,14,47,14.60
2017,04,21,14,48,14.70
2017,04,21,14,49,14.60
2017,04,21,14,50,14.60
2017,04,21,14,51,14.60
2017,04,21,14,52,14.60
2017,04,21,14,53,14.70
2017,04,21,14,54,14.60
2017,04,21,14,55,14.60
2017,04,21,14,56,14.60
2017,04,21,14,57,14.60
2017,04,21,14,58,14.60
2017,04,21,14,59,14.70
2017,04,21,15,00,14.80
2017,04,21,15,01,14.80
2017,04,21,15,02,14.80
2017,04,21,15,03,14.70
2017,04,21,15,04,14.70
2017,04,21,15,05,14.70
2017,04,21,15,06,14.70
2017,04,21,15,07,14.70
2017,04,21,15,08,14.60
2017,04,21,15,09,14.70
2017,04,21,15,10,14.70
2017,04,21,15,11,14.70
2017,04,21,15,12,14.70
2017,04,21,15,13,14.80
2017,04,21,15,14,14.90
2017,04,21,15,15,14.90
2017,04,21,15,16,14.90
2017,04,21,15,17,14.90
2017,04,21,15,18,14.90
2017,04,21,15,19,14.90
2017,04,21,15,20,15.00
2017,04,21,15,21,15.00
2017,04,21,15,22,14.90
2017,04,21,15,23,15.00
2017,04,21,15,24,15.10
2017,04,21,15,25,15.10
2017,04,21,15,26,15.10
2017,04,21,15,27,15.00
2017,04,21,15,28,15.00
2017,04,21,15,29,15.00
2017,04,21,15,30,15.00
2017,04,21,15,31,15.10
2017,04,21,15,32,15.20
2017,04,21,15,33,15.40
2017,04,21,15,34,15.40
2017,04,21,15,35,15.40
2017,04,21,15,36,15.50
2017,04,21,15,37,15.50
2017,04,21,15,38,15.60
2017,04,21,15,39,15.60
2017,04,21,15,40,15.60
2017,04,21,15,41,15.60
2017,04,21,15,42,15.50
2017,04,21,15,43,15.50
2017,04,21,15,44,15.40
2017,04,21,15,45,15.30
2017,04,21,15,46,15.20
2017,04,21,15,47,15.20
2017,04,21,15,48,15.20
2017,04,21,15,49,15.20
2017,04,21,15,50,15.20
2017,04,21,15,51,15.20
2017,04,21,15,52,15.20
2017,04,21,15,53,15.10
2017,04,21,15,54,15.10
2017,04,21,15,55,15.10
2017,04,21,15,56,15.20
2017,04,21,15,57,15.20
2017,04,21,15,58,15.20
2017,04,21,15,59,15.30
2017,04,21,16,00,15.30
2017,04,21,16,01,15.30
2017,04,21,16,02,15.40
2017,04,21,16,03,15.50
2017,04,21,16,04,15.50
2017,04,21,16,05,15.50
2017,04,21,16,06,15.40
2017,04,21,16,07,15.50
2017,04,21,16,08,15.50
2017,04,21,16,09,15.50
2017,04,21,16,10,15.50
2017,04,21,16,11,15.60
2017,04,21,16,12,15.60
2017,04,21,16,13,15.60
2017,04,21,16,14,15.60
2017,04,21,16,15,15.70
2017,04,21,16,16,15.70
2017,04,21,16,17,15.80
2017,04,21,16,18,15.80
2017,04,21,16,19,15.80
2017,04,21,16,20,15.90
2017,04,21,16,21,16.00
2017,04,21,16,22,16.00
2017,04,21,16,23,16.20
2017,04,21,16,24,16.20
2017,04,21,16,25,16.30
2017,04,21,16,26,16.20
2017,04,21,16,27,16.20
2017,04,21,16,28,16.10
2017,04,21,16,29,16.10
2017,04,21,16,30,16.10
2017,04,21,16,31,16.20
2017,04,21,16,32,16.20
2017,04,21,16,33,16.20
2017,04,21,16,34,16.10
2017,04,21,16,35,16.00
2017,04,21,16,36,16.00
2017,04,21,16,37,15.90
2017,04,21,16,38,16.00
2017,04,21,16,39,16.10
2017,04,21,16,40,16.20
2017,04,21,16,41,16.20
2017,04,21,16,42,16.30
2017,04,21,16,43,16.30
2017,04,21,16,44,16.30
2017,04,21,16,45,16.20
2017,04,21,16,46,16.10
2017,04,21,16,47,16.00
2017,04,21,16,48,16.00
2017,04,21,16,49,16.00
2017,04,21,16,50,16.00
2017,04,21,16,51,16.10
2017,04,21,16,52,16.10
2017,04,21,16,53,16.10
2017,04,21,16,54,16.20
2017,04,21,16,55,16.20
2017,04,21,16,56,16.20
2017,04,21,16,57,16.20
2017,04,21,16,58,16.20
2017,04,21,16,59,16.20
2017,04,21,17,00,16.30
2017,04,21,17,01,16.20
2017,04,21,17,02,16.20
2017,04,21,17,03,16.20
2017,04,21,17,04,16.20
2017,04,21,17,05,16.20
2017,04,21,17,06,16.30
2017,04,21,17,07,16.30
2017,04,21,17,08,16.30
2017,04,21,17,09,16.40
2017,04,21,17,10,16.40
2017,04,21,17,11,16.50
2017,04,21,17,12,16.40
2017,04,21,17,13,16.40
2017,04,21,17,14,16.40
2017,04,21,17,15,16.40
2017,04,21,17,16,16.30
2017,04,21,17,17,16.30
2017,04,21,17,18,16.40
2017,04,21,17,19,16.40
2017,04,21,17,20,16.50
2017,04,21,17,21,16.50
2017,04,21,17,22,16.50
2017,04,21,17,23,16.50
2017,04,21,17,24,16.50
2017,04,21,17,25,16.50
2017,04,21,17,26,16.40
2017,04,21,17,27,16.40
2017,04,21,17,28,16.40
2017,04,21,17,29,16.50
2017,04,21,17,30,16.50
2017,04,21,17,31,16.50
2017,04,21,17,32,16.50
2017,04,21,17,33,16.60
2017,04,21,17,34,16.60
2017,04,21,17,35,16.60
2017,04,21,17,36,16.60
2017,04,21,17,37,16.60
2017,04,21,17,38,16.70
2017,04,21,17,39,16.70
2017,04,21,17,40,16.70
2017,04,21,17,41,16.70
2017,04,21,17,42,16.70